Weather in Dalnevostochnoye

Russia / Amur Oblast     50°31′03″N   128°52′15″E
temp.,
°C
wind,
m/s
gust,
m/s
humid.,
%
clouds,
%
prec.,
mm/h
press.,
hPa
HPBL,
m
15 august, mon
mon1500:00+15sse22890 0.0 100512
03:00+15se11890 0.0 100511
06:00+15ese22902 0.0 100513
09:00+20e22756 0.0 1005385
12:00+23ene235921 0.0 10041088
15:00+24nne23550 0.0 10031360
18:00+24ne13680 0.0 1003503
21:00+18nne11780 0.0 100411
16 august, tue
tue1600:00+18sw117692 0.0 100411
03:00+18wnw227621 0.0 100429
06:00+16nw22860 0.0 100520
09:00+22wnw23680 0.0 1005351
12:00+26w23530 0.0 10041101
15:00+27w34464 0.0 10032045
18:00+26ssw226215 0.0 100353
21:00+21ssw476692 0.0 1004111
17 august, wed
wed1700:00+18ssw348633 0.0 100456
03:00+17ssw48921 0.0 1005132
06:00+17ssw49895 0.0 1005158
09:00+23ssw610665 0.0 1005433
12:00+27sw79515 0.0 10041065
15:00+28ssw794925 0.0 10031472
18:00+25sw7125985 0.0 1003665
21:00+22sw5146741 0.0 1003387
18 august, thu
thu1800:00+19ssw51373100 0.0 1003316
03:00+18ssw5148011 0.0 1003313
06:00+17s6148398 0.0 1002312
09:00+21ssw71169100 0.0 1001654
12:00+23sw7968100 0.4 10011000
15:00+21sw51084100 1.5 1000509
18:00+21ssw51187100 2.9 1000500
21:00+18s61198100 12.8 999420
19 august, fri
fri1900:00+17ssw61198100 14.4 999474
03:00+17ssw3599100 17.6 999222
06:00+16w1199100 0.4 99938
09:00+19n36848 0.8 1000434
12:00+23n57570 0.4 10011474
15:00+24n364967 0.4 10012052
18:00+22nnw236941 0.1 100158
21:00+16w368970 0.9 1003117